Location: Devargunta
(16.7631°N, 80.9077°E)
Time: 12:30:38
(UTC+00:00)

Cosmos 540 Rocket - Pass Details

Date: 03 December 2021
Orbit: 739 x 754 km, 74.1° (Epoch: 26 January)

Event Time Altitude Azimuth Distance (km) Brightness Sun altitude
Exits shadow 00:16:16 10° 289° (WNW) 2,253 5.2 -8.4°
Maximum altitude 00:18:35 13° 262° (W) 2,041 5.2 -7.9°
Drops below altitude 10° 00:20:59 10° 234° (SW) 2,265 5.6 -7.4°
Sets 00:24:36 0° 207° (SSW) 3,189 6.6 -6.6°
